Location: Mequon Rotary Park
(43.2522°N, 87.9594°W)
Time: 23:55:13
(UTC-05:00)

Daily predictions for brighter satellites

Satellite Brightness Start Highest point End
(mag) Time Altitude Azimuth Time Altitude Azimuth Time Altitude Azimuth
Cosmos 2219 Rocket 4.4 18:54:30 10° WSW 18:59:13 27° NW 19:03:59 10° N
CZ-4C R/B 3.7 18:54:50 10° WSW 18:59:55 38° NW 19:05:38 10° NNE
Cosmos 1437 4.1 18:57:40 10° NNW 19:00:49 46° W 19:03:58 10° S
Helios 1A 4.2 18:58:21 10° ESE 19:01:42 23° ENE 19:05:03 10° NNE
IDEFIX/ARIANE 42P 3.7 18:57:40 10° S 19:02:44 51° W 19:07:52 10° NNW
Aureole 2 Rocket 3.6 18:59:18 10° SSW 19:03:38 63° WNW 19:07:49 10° NNE
NOSS 3-2 (A) 3.7 18:59:19 10° SW 19:05:24 82° NW 19:12:07 10° NE
Meteor 1-28 Rocket 3.6 19:04:10 10° NNE 19:07:41 38° E 19:11:10 10° SSE
GPS 2-04 Rocket1 4.3 19:09:56 10° SSW 19:12:21 18° SSE 19:14:49 10° ESE
NOAA 12 4.1 19:12:15 10° SSE 19:17:27 67° ENE 19:22:42 10° N
Cosmos 1943 Rocket 3.8 19:14:40 10° N 19:18:07 16° NE 19:21:11 11° E
SAR-Lupe-1 4.0 19:15:08 10° SSE 19:18:40 74° ENE 19:22:14 10° N
H-2A R/B 4.4 19:17:05 11° E 19:19:07 16° ENE 19:21:31 10° NNE
Cosmos 1452 Rocket 3.6 19:14:23 10° NNW 19:19:42 89° WSW 19:24:56 10° SSE
Cosmos 1743 Rocket 4.1 19:15:38 10° N 19:19:47 37° ENE 19:23:52 10° SE
Resurs 1-3 4.3 19:18:18 10° SE 19:22:16 34° ENE 19:26:14 10° N
Cosmos 1805 3.3 19:18:34 10° S 19:22:25 57° E 19:26:19 10° NNE
ALOS 3.2 19:21:17 10° SE 19:25:15 28° ENE 19:29:14 10° N
Cosmos 2369 Rocket 2.9 19:21:06 10° N 19:26:17 35° NE 19:31:02 12° ESE
Cosmos 1943 3.9 19:24:19 10° SSE 19:29:05 29° ESE 19:33:51 10° NE
Helios 1B rocket 2.9 19:25:39 10° NNE 19:29:31 38° E 19:33:22 10° SSE
SL-8 R/B 3.8 19:25:31 10° SW 19:30:14 61° SSE 19:34:17 14° ENE
Resurs 01 Rocket 1.8 19:26:00 10° SSE 19:30:19 53° ENE 19:34:39 10° N
CENTAUR R/B 3.0 19:25:45 10° S 19:31:09 36° ESE 19:37:08 10° NE
Gbstr 26 Del rocket 3.9 19:28:44 10° SSW 19:32:41 34° SE 19:36:27 14° ENE
ISS -3.1 19:32:41 10° SW 19:35:50 51° SE 19:37:50 20° ENE
Cosmos 1953 2.2 19:32:05 10° S 19:36:03 86° ESE 19:40:04 10° N
Cosmos 1603 3.7 19:30:27 10° SSW 19:36:10 76° ESE 19:41:56 10° NNE
BREEZE-M DEB (TANK) 4.3 19:19:35 10° W 19:37:40 74° N 19:41:39 17° E
Meteor 2-12 Rocket 4.4 19:31:52 10° S 19:37:58 72° E 19:44:07 10° NNE
COSMO-SKYMED 1 4.0 19:34:10 10° N 19:38:17 42° WNW 19:42:22 10° SW
Cosmos 1420 Rocket 4.0 19:33:31 10° NNW 19:38:51 77° ENE 19:44:10 10° SSE
Cosmos 468 4.4 19:33:43 10° SSW 19:38:57 81° ESE 19:44:12 10° NNE
Cosmos 1733 4.0 19:37:28 10° SSE 19:40:50 29° E 19:44:13 10° NNE
ERBS 4.2 19:40:44 10° NNW 19:43:19 19° NNE 19:44:32 16° NE
NOSS 3-2 (C) 4.1 19:39:50 10° SW 19:45:52 58° NW 19:52:32 10° NNE
Nadezhda 4 Rocket 3.9 19:41:05 10° N 19:47:21 73° E 19:53:32 10° SSE
Cosmos 1674 2.8 19:43:49 10° N 19:47:38 53° E 19:51:26 10° SSE
Cosmos 1470 3.0 19:44:16 10° SSE 19:47:57 43° E 19:51:39 10° NNE
GP-B 3.9 19:47:50 10° NNE 19:51:43 29° E 19:52:56 25° ESE
Cosmos 2058 4.3 19:49:06 10° NNE 19:51:47 20° ENE 19:51:47 20° ENE
Spot 2 Rocket 3.5 19:49:13 10° SSE 19:54:16 87° WSW 19:59:21 10° NNW
Abrixas 2.4 19:52:02 10° WSW 19:55:02 80° NNW 19:56:04 37° ENE
Cosmos 1092 Rocket 3.9 19:51:12 10° N 19:57:22 64° E 20:03:27 10° SSE
Cosmos 1048 Rocket 3.9 19:53:28 10° SSW 19:58:45 80° ESE 20:04:00 10° NNE
Cosmos 2151 3.5 19:56:48 10° N 20:00:44 37° ENE 20:01:36 33° ESE
Cosmos-2242 3.7 19:56:59 10° SSW 20:01:17 58° W 20:05:38 10° N
ATLAS 5 CENTAUR R/B 3.2 19:57:26 10° WSW 20:02:01 41° NW 20:07:01 10° NNE
Cosmos 1269 Rocket 4.1 19:59:03 10° SSW 20:04:19 80° WNW 20:09:38 10° NNE
HJ-1C 4.1 20:01:12 10° S 20:04:29 53° W 20:07:48 10° NNW
Envisat 4.3 20:05:36 21° ENE 20:05:36 21° ENE 20:09:11 10° NNE
Cosmos 2221 4.5 20:09:42 15° NE 20:09:42 15° NE 20:10:41 10° NNE
Cosmos 1655 Rocket 4.4 20:01:49 10° N 20:07:38 40° ENE 20:10:10 28° ESE
Cosmos 2026 Rocket 4.2 20:02:28 10° N 20:08:17 44° ENE 20:11:20 26° SE
Cosmos 1544 3.9 20:05:41 10° SSW 20:09:20 52° W 20:13:01 10° N
Cosmos 1174 3.8 20:05:40 10° SSW 20:10:19 63° ESE 20:12:05 30° NE
Cosmos 158 Rocket 3.8 20:05:47 10° S 20:10:35 60° ESE 20:15:24 10° NNE
Meteor 1-16 Rocket 4.4 20:06:54 10° SSE 20:11:51 42° E 20:16:49 10° NNE
FengYun 1-2 T 4.3 20:09:00 10° S 20:14:30 76° WSW 20:20:01 10° NNW
Cosmos 1634 Rocket 3.9 20:08:36 10° S 20:14:44 62° E 20:20:50 10° NNE
USA 215 3.2 20:09:20 12° NE 20:15:28 65° SE 20:21:57 10° SW
CZ-4B DEB 3.0 20:22:25 55° SSW 20:22:59 71° W 20:26:15 10° NNW
Meteor 1-11 4.3 20:17:33 10° N 20:23:15 55° ENE 20:25:15 37° SE
Cosmos 1500 Rocket 4.2 20:23:42 10° NNW 20:28:03 57° W 20:32:24 10° S
Cosmos 1842 Rocket 4.1 20:25:52 10° SSW 20:30:08 59° W 20:34:28 10° N
Cosmos 2195 Rocket 4.4 20:24:18 10° N 20:30:40 75° E 20:34:50 23° SSE
ERS-1 Rocket 3.5 20:35:50 40° NE 20:35:50 40° NE 20:40:00 10° N
FENGYUN 3A 4.0 20:32:29 10° S 20:37:47 64° WSW 20:43:10 10° NNW
Cosmos 1328 3.9 20:38:23 10° NNW 20:42:22 70° W 20:42:31 68° WSW
CZ-2D R/B 3.9 20:41:50 42° SSW 20:42:48 54° W 20:46:37 10° NNW
SL-14 R/B 4.1 20:41:59 10° N 20:44:46 42° N 20:44:46 42° N
Cosmos 1110 Rocket 4.0 20:44:00 10° NNW 20:49:21 84° WSW 20:50:20 60° S
H-2A R/B 3.9 20:52:21 36° SW 20:53:06 41° W 20:56:47 10° NNW
BREEZE-M DEB (TANK) 4.4 20:51:27 10° W 21:01:38 52° NNW 21:02:55 41° NNE
ALOS 3.9 20:58:47 12° SSW 21:02:35 31° W 21:06:46 10° NNW
Cosmos 1943 Rocket 2.0 20:57:05 10° NNW 21:02:43 86° ENE 21:02:43 86° ENE
Cosmos 2251 Rocket 3.6 21:03:10 10° SSW 21:08:23 71° WNW 21:13:38 10° NNE
Cosmos 2369 Rocket 3.5 21:05:09 10° NW 21:10:17 37° WSW 21:12:52 24° SSW
ISS -0.3 21:09:32 10° W 21:10:31 17° WNW 21:10:31 17° WNW
SL-8 R/B 4.5 21:08:13 10° W 21:12:18 49° NW 21:12:18 49° NW
Cosmos 1943 4.3 21:07:35 10° SW 21:12:55 43° WNW 21:18:17 10° NNE
Cosmos 2180 Rocket 4.4 21:19:39 83° NNW 21:19:39 83° NNW 21:25:37 10° N
Gbstr 26 Del rocket 4.0 21:14:47 10° WSW 21:19:04 56° NW 21:19:04 56° NW
CENTAUR R/B 3.4 21:15:36 10° WSW 21:21:35 48° NW 21:28:21 10° NNE
Envisat 4.4 21:45:49 36° NW 21:45:49 36° NW 21:49:04 10° NNW
UNK 4.4 21:34:39 10° WNW 21:48:32 71° NW 21:48:32 71° NW
USA 215 4.0 21:56:44 39° N 21:58:19 47° NNW 22:04:30 10° W
